Location: Amarillo Post Office Jordan Station
(35.1907°N, 101.9342°W)
Time: 13:40:43
(UTC+00:00)

Cosmos 2278 Rocket - Pass Details

Date: 24 January 2021
Orbit: 840 x 847 km, 71.0° (Epoch: 04 March)

Event Time Altitude Azimuth Distance (km) Brightness Sun altitude
Exits shadow 12:45:44 14° 315° (NW) 2,176 3.8 -13.7°
Maximum altitude 12:49:54 34° 256° (WSW) 1,350 2.8 -12.8°
Drops below altitude 10° 12:54:56 10° 193° (SSW) 2,456 4.7 -11.8°
Sets 12:57:34 0° 184° (S) 3,386 5.5 -11.3°
